Twin Falls, ID

1:21 AM MST on November 23, 2017 (GMT -0700)
Joslin Field-Magic Valley Regional

Weather History for KTWF - September, 2012

Change the Weather History Date:

Wednesday, September 12, 2012

  Actual Average Record
Temperature  
Mean Temperature 61 °F -  
Max Temperature 74 °F 79 °F 93 °F (1990)
Min Temperature 47 °F 49 °F 33 °F (1988)
Degree Days  
Heating Degree Days 4 3  
Month to date heating degree days 7 30  
Since 1 July heating degree days 7 51  
Cooling Degree Days 0 2  
Month to date cooling degree days 46 42  
Year to date cooling degree days 926 659  
Growing Degree Days 10 (Base 50)    
Moisture  
Dew Point 18 °F    
Average Humidity 28    
Maximum Humidity 45    
Minimum Humidity 11    
Precipitation  
Precipitation 0.00 in 0.01 in 0.43 in (1998)
Month to date precipitation 0.02 0.19  
Year to date precipitation 6.89 7.07  
Sea Level Pressure  
Sea Level Pressure 30.17 in    
Wind  
Wind Speed 11 mph (SW)    
Max Wind Speed 21 mph    
Max Gust Speed 25 mph    
Visibility 10 miles    
Events      
T = Trace of Precipitation, MM = Missing Value Source: NWS Daily Summary

Daily Weather History Graph

Daily Weather History Graph

Search for Another Location

Airport or City:

Trip Planner

Search our weather history database for the weather conditions in past years. The results will help you decide how hot, cold, wet, or windy it might be!

Date:

Astronomy

Sep. 12, 2012 Rise Set
Actual Time 7:15 AM MDT 7:51 PM MDT
Civil Twilight 6:46 AM MDT 8:20 PM MDT
Nautical Twilight 6:13 AM MDT 8:53 PM MDT
Astronomical Twilight 5:38 AM MDT 9:28 PM MDT
Moon 3:32 AM MDT (9/12) 5:45 PM MDT (9/12)
Length of Visible Light 13h 33m
Length of Day
12h 36m
Waning Crescent, 13% of the Moon is Illuminated
Sep 12
Waning Crescent
Sep 15
New
Sep 22
First Quarter
Sep 29
Full
Oct 8
Last Quarter

Hourly Weather History & Observations

Time (MDT) Temp. Dew Point Humidity Pressure Visibility Wind Dir Wind Speed Gust Speed Precip Events Conditions
12:53 AM 50.0 °F 12.0 °F 22% 30.06 in 10.0 mi South 12.7 mph - N/A   Clear
1:53 AM 52.0 °F 12.0 °F 20% 30.06 in 10.0 mi SSW 15.0 mph - N/A   Clear
2:53 AM 52.0 °F 10.0 °F 19% 30.05 in 10.0 mi South 15.0 mph - N/A   Clear
3:53 AM 50.0 °F 9.0 °F 19% 30.06 in 10.0 mi South 16.1 mph - N/A   Clear
4:53 AM 51.1 °F 8.1 °F 18% 30.06 in 10.0 mi SSW 15.0 mph - N/A   Clear
5:53 AM 52.0 °F 10.0 °F 19% 30.09 in 10.0 mi SSW 12.7 mph 20.7 mph N/A   Clear
6:53 AM 51.1 °F 10.9 °F 20% 30.14 in 10.0 mi SSW 12.7 mph - N/A   Clear
7:53 AM 51.1 °F 14.0 °F 23% 30.17 in 10.0 mi SSW 11.5 mph - N/A   Clear
8:53 AM 55.0 °F 18.0 °F 23% 30.19 in 10.0 mi SW 11.5 mph - N/A   Clear
9:53 AM 61.0 °F 17.1 °F 18% 30.20 in 10.0 mi WSW 15.0 mph 23.0 mph N/A   Clear
10:53 AM 63.0 °F 19.9 °F 19% 30.22 in 10.0 mi West 13.8 mph - N/A   Clear
11:53 AM 66.0 °F 19.9 °F 17% 30.23 in 10.0 mi West 17.3 mph - N/A   Clear
12:53 PM 68.0 °F 21.9 °F 17% 30.22 in 10.0 mi West 15.0 mph - N/A   Clear
1:53 PM 70.0 °F 21.9 °F 16% 30.21 in 10.0 mi West 13.8 mph 20.7 mph N/A   Clear
2:53 PM 71.1 °F 21.9 °F 16% 30.19 in 10.0 mi West 9.2 mph - N/A   Clear
3:53 PM 72.0 °F 19.9 °F 14% 30.19 in 10.0 mi West 12.7 mph - N/A   Clear
4:53 PM 73.0 °F 19.9 °F 14% 30.19 in 10.0 mi WNW 8.1 mph - N/A   Clear
5:53 PM 73.0 °F 16.0 °F 11% 30.18 in 10.0 mi West 6.9 mph - N/A   Clear
6:53 PM 71.1 °F 17.1 °F 13% 30.18 in 10.0 mi West 5.8 mph - N/A   Clear
7:53 PM 54.0 °F 32.0 °F 43% 30.22 in 10.0 mi Calm Calm - N/A   Clear
8:53 PM 50.0 °F 25.0 °F 38% 30.24 in 10.0 mi SSE 5.8 mph - N/A   Clear
9:53 PM 53.1 °F 23.0 °F 31% 30.25 in 10.0 mi SSE 8.1 mph - N/A   Clear
10:53 PM 48.9 °F 25.0 °F 39% 30.27 in 10.0 mi South 8.1 mph - N/A   Clear
11:53 PM 52.0 °F 19.9 °F 28% 30.27 in 10.0 mi SSW 6.9 mph - N/A   Clear